LOG8ML EGJJ-EGHI

Flight info

Callsign LOG8ML
Flight time 0h 31m
Altitude 13000
Route ORTAC Q41 THRED
Aircraft AT76/M-SDFGIRY/S

Departure

Time 2026-05-04 20:11
Airport Jersey Airport (EGJJ)

Arrival

Time 2026-05-04 20:42
Airport Southampton Airport (EGHI)
Time Latitude Longitude Altitude Speed Heading
2026-05-04 19:43 49.20483 -2.19564 286 ft 0 kts 15°
2026-05-04 20:05 49.20468 -2.19570 280 ft 2 kts
2026-05-04 20:05 49.20442 -2.19572 280 ft 9 kts 342°
2026-05-04 20:06 49.20424 -2.19552 280 ft 8 kts 286°
2026-05-04 20:06 49.20422 -2.19543 280 ft 13 kts 287°
2026-05-04 20:07 49.20433 -2.19608 285 ft 9 kts 284°
2026-05-04 20:08 49.20443 -2.19704 286 ft 10 kts 264°
2026-05-04 20:08 49.20435 -2.19825 286 ft 13 kts 265°
2026-05-04 20:08 49.20463 -2.19920 286 ft 8 kts 352°
2026-05-04 20:08 49.20513 -2.19964 286 ft 13 kts 294°
2026-05-04 20:09 49.20540 -2.20100 286 ft 13 kts 287°
2026-05-04 20:09 49.20566 -2.20230 286 ft 13 kts 286°
2026-05-04 20:09 49.20595 -2.20379 286 ft 19 kts 286°
2026-05-04 20:09 49.20624 -2.20553 286 ft 16 kts 277°
2026-05-04 20:10 49.20653 -2.20700 286 ft 12 kts 333°
2026-05-04 20:10 49.20705 -2.20650 285 ft 9 kts 76°
2026-05-04 20:10 49.20717 -2.20524 285 ft 30 kts 83°
2026-05-04 20:10 49.20768 -2.19910 287 ft 86 kts 83°
2026-05-04 20:11 49.20870 -2.18772 411 ft 120 kts 77°
2026-05-04 20:11 49.21076 -2.17498 825 ft 131 kts 63°
2026-05-04 20:11 49.21798 -2.16597 1088 ft 152 kts 13°
2026-05-04 20:11 49.22886 -2.16300 1536 ft 163 kts
2026-05-04 20:12 49.24045 -2.16215 2038 ft 171 kts
2026-05-04 20:12 49.25280 -2.16119 2314 ft 192 kts
2026-05-04 20:12 49.26607 -2.15541 2663 ft 196 kts 30°
2026-05-04 20:12 49.27737 -2.14500 3306 ft 187 kts 31°
2026-05-04 20:13 49.28843 -2.13480 3745 ft 183 kts 29°
2026-05-04 20:13 49.30079 -2.13056 4071 ft 185 kts
2026-05-04 20:13 49.31375 -2.12944 4407 ft 187 kts
2026-05-04 20:13 49.32660 -2.12745 4778 ft 188 kts
2026-05-04 20:14 49.33977 -2.12445 5120 ft 190 kts
2026-05-04 20:14 49.35266 -2.12095 5477 ft 191 kts 11°
2026-05-04 20:14 49.36595 -2.11714 5814 ft 193 kts 11°
2026-05-04 20:14 49.37903 -2.11338 6155 ft 195 kts 11°
2026-05-04 20:15 49.39243 -2.10957 6489 ft 196 kts 11°
2026-05-04 20:15 49.40591 -2.10575 6815 ft 198 kts 11°
2026-05-04 20:15 49.41946 -2.10193 7138 ft 198 kts 11°
2026-05-04 20:15 49.43307 -2.09810 7462 ft 199 kts 11°
2026-05-04 20:16 49.44674 -2.09425 7781 ft 200 kts 11°
2026-05-04 20:16 49.46046 -2.09035 8102 ft 201 kts 11°
2026-05-04 20:16 49.47425 -2.08644 8413 ft 202 kts 11°
2026-05-04 20:16 49.48812 -2.08255 8725 ft 203 kts 11°
2026-05-04 20:17 49.50207 -2.07861 9052 ft 204 kts 11°
2026-05-04 20:17 49.51609 -2.07465 9370 ft 205 kts 12°
2026-05-04 20:17 49.53015 -2.07063 9675 ft 206 kts 12°
2026-05-04 20:17 49.54422 -2.06663 9961 ft 207 kts 12°
2026-05-04 20:18 49.55843 -2.06262 10217 ft 208 kts 12°
2026-05-04 20:18 49.57198 -2.05874 10460 ft 209 kts 12°
2026-05-04 20:18 49.58637 -2.05465 10714 ft 211 kts 12°
2026-05-04 20:18 49.60087 -2.05054 10965 ft 212 kts 12°
2026-05-04 20:19 49.61556 -2.04638 11214 ft 214 kts 12°
2026-05-04 20:19 49.63007 -2.04227 11457 ft 215 kts 12°
2026-05-04 20:19 49.64486 -2.03806 11697 ft 217 kts 12°
2026-05-04 20:19 49.65975 -2.03381 11938 ft 218 kts 12°
2026-05-04 20:20 49.67463 -2.02958 12179 ft 219 kts 12°
2026-05-04 20:20 49.68971 -2.02528 12419 ft 221 kts 12°
2026-05-04 20:20 49.70488 -2.02097 12659 ft 222 kts 12°
2026-05-04 20:20 49.72034 -2.01813 12862 ft 226 kts
2026-05-04 20:21 49.73634 -2.01754 12956 ft 234 kts
2026-05-04 20:21 49.75294 -2.01751 12986 ft 243 kts
2026-05-04 20:21 49.78759 -2.01672 13012 ft 257 kts
2026-05-04 20:22 49.80584 -2.01580 13011 ft 263 kts
2026-05-04 20:22 49.82432 -2.01480 13013 ft 268 kts
2026-05-04 20:22 49.84307 -2.01379 13013 ft 271 kts
2026-05-04 20:22 49.86179 -2.01281 13015 ft 274 kts
2026-05-04 20:23 49.88092 -2.01181 13009 ft 276 kts
2026-05-04 20:23 49.90017 -2.01080 13008 ft 277 kts
2026-05-04 20:23 49.91319 -2.01010 13012 ft 278 kts
2026-05-04 20:23 49.93234 -2.00908 13005 ft 279 kts
2026-05-04 20:24 49.95180 -2.00802 13004 ft 280 kts
2026-05-04 20:24 49.97131 -2.00696 13004 ft 280 kts
2026-05-04 20:24 49.99070 -2.00596 13004 ft 280 kts
2026-05-04 20:24 50.00970 -2.00129 13004 ft 276 kts 22°
2026-05-04 20:25 50.02718 -1.98893 12999 ft 276 kts 28°
2026-05-04 20:25 50.04437 -1.97537 13000 ft 277 kts 28°
2026-05-04 20:25 50.06173 -1.96212 13001 ft 278 kts 27°
2026-05-04 20:25 50.07931 -1.94989 13009 ft 278 kts 25°
2026-05-04 20:26 50.09717 -1.93809 13008 ft 279 kts 25°
2026-05-04 20:26 50.11501 -1.92611 12997 ft 279 kts 25°
2026-05-04 20:26 50.13280 -1.91399 13002 ft 279 kts 25°
2026-05-04 20:26 50.15062 -1.90189 13001 ft 279 kts 25°
2026-05-04 20:27 50.16849 -1.88969 13005 ft 279 kts 25°
2026-05-04 20:27 50.18631 -1.87759 13003 ft 279 kts 25°
2026-05-04 20:27 50.20412 -1.86546 12986 ft 280 kts 25°
2026-05-04 20:27 50.22243 -1.85296 12596 ft 291 kts 25°
2026-05-04 20:28 50.24101 -1.84028 12205 ft 292 kts 25°
2026-05-04 20:28 50.25961 -1.82757 11807 ft 292 kts 24°
2026-05-04 20:28 50.27824 -1.81492 11430 ft 291 kts 25°
2026-05-04 20:28 50.29678 -1.80222 11057 ft 291 kts 24°
2026-05-04 20:29 50.31529 -1.78952 10686 ft 290 kts 25°
2026-05-04 20:29 50.33375 -1.77688 10318 ft 289 kts 25°
2026-05-04 20:29 50.35216 -1.76429 9961 ft 288 kts 24°
2026-05-04 20:29 50.37050 -1.75173 9564 ft 286 kts 25°
2026-05-04 20:30 50.38777 -1.73984 9197 ft 261 kts 24°
2026-05-04 20:30 50.40373 -1.72886 8856 ft 241 kts 24°
2026-05-04 20:30 50.41878 -1.71849 8544 ft 236 kts 24°
2026-05-04 20:30 50.43391 -1.70809 8244 ft 239 kts 24°
2026-05-04 20:31 50.44916 -1.69756 7946 ft 240 kts 24°
2026-05-04 20:31 50.46450 -1.68699 7644 ft 241 kts 24°
2026-05-04 20:31 50.47982 -1.67644 7349 ft 240 kts 24°
2026-05-04 20:31 50.49491 -1.66598 7138 ft 233 kts 24°
2026-05-04 20:32 50.50946 -1.65590 7067 ft 223 kts 24°
2026-05-04 20:32 50.52358 -1.64626 7030 ft 219 kts 24°
2026-05-04 20:32 50.53760 -1.63669 7018 ft 221 kts 23°
2026-05-04 20:32 50.55174 -1.62714 7013 ft 222 kts 24°
2026-05-04 20:33 50.56590 -1.61746 7012 ft 222 kts 24°
2026-05-04 20:33 50.58005 -1.60767 7005 ft 223 kts 24°
2026-05-04 20:33 50.59450 -1.59724 6753 ft 233 kts 26°
2026-05-04 20:33 50.60911 -1.58608 6494 ft 234 kts 26°
2026-05-04 20:34 50.62354 -1.57499 6218 ft 229 kts 26°
2026-05-04 20:34 50.63777 -1.56393 5949 ft 226 kts 26°
2026-05-04 20:34 50.65141 -1.55342 5677 ft 209 kts 27°
2026-05-04 20:34 50.66406 -1.54383 5436 ft 198 kts 26°
2026-05-04 20:35 50.67636 -1.53462 5219 ft 199 kts 26°
2026-05-04 20:35 50.68887 -1.52517 4990 ft 200 kts 26°
2026-05-04 20:35 50.70141 -1.51568 4760 ft 200 kts 26°
2026-05-04 20:35 50.71398 -1.50608 4522 ft 200 kts 26°
2026-05-04 20:36 50.72647 -1.49650 4289 ft 199 kts 26°
2026-05-04 20:36 50.73895 -1.48700 4061 ft 199 kts 26°
2026-05-04 20:36 50.75115 -1.47775 3838 ft 189 kts 26°
2026-05-04 20:36 50.76299 -1.46876 3627 ft 189 kts 26°
2026-05-04 20:37 50.77444 -1.46000 3422 ft 176 kts 26°
2026-05-04 20:37 50.78516 -1.45185 3227 ft 167 kts 26°
2026-05-04 20:37 50.79550 -1.44405 3154 ft 161 kts 26°
2026-05-04 20:37 50.80546 -1.43660 3046 ft 159 kts 24°
2026-05-04 20:38 50.81570 -1.43037 2800 ft 156 kts 20°
2026-05-04 20:38 50.82569 -1.42509 2560 ft 146 kts 19°
2026-05-04 20:38 50.83484 -1.42029 2356 ft 129 kts 19°
2026-05-04 20:38 50.84277 -1.41601 2253 ft 112 kts 19°
2026-05-04 20:39 50.84993 -1.41229 2231 ft 110 kts 18°
2026-05-04 20:39 50.85765 -1.40848 2171 ft 126 kts 18°
2026-05-04 20:39 50.86621 -1.40413 1819 ft 125 kts 19°
2026-05-04 20:39 50.87411 -1.39973 1617 ft 118 kts 21°
2026-05-04 20:40 50.88153 -1.39511 1387 ft 116 kts 21°
2026-05-04 20:40 50.88919 -1.39082 1190 ft 117 kts 19°
2026-05-04 20:40 50.89668 -1.38653 1050 ft 113 kts 21°
2026-05-04 20:40 50.90399 -1.38248 921 ft 111 kts 20°
2026-05-04 20:41 50.91132 -1.37840 773 ft 112 kts 20°
2026-05-04 20:41 50.91869 -1.37434 628 ft 113 kts 19°
2026-05-04 20:41 50.92608 -1.37031 470 ft 112 kts 19°
2026-05-04 20:41 50.93347 -1.36615 303 ft 114 kts 19°
2026-05-04 20:42 50.94101 -1.36197 121 ft 115 kts 20°
2026-05-04 20:42 50.94840 -1.35788 38 ft 108 kts 21°
2026-05-04 20:42 50.95282 -1.35547 36 ft 21 kts
2026-05-04 20:42 50.95308 -1.35519 36 ft 1 kts 139°
2026-05-04 20:43 50.95244 -1.35558 36 ft 19 kts 202°
2026-05-04 20:43 50.95128 -1.35623 37 ft 17 kts 199°
2026-05-04 20:43 50.95024 -1.35695 36 ft 12 kts 233°
2026-05-04 20:43 50.95033 -1.35784 36 ft 17 kts 289°
2026-05-04 20:44 50.95065 -1.35964 36 ft 16 kts 289°
2026-05-04 20:44 50.95073 -1.36001 36 ft 0 kts 289°